Powrót do katalogu

SL-6 R/B(2)

AktywnyHEO
NORAD 10949·ROCKET BODY·🇷🇺 Russia

Wystrzelony Jun 2, 1978 z Plesetsk Cosmodrome

Loading…

Następne Przeloty (najbliższe 24 godziny)

TLE

ŚwieżeSource: Space-Track

Epoka: Sep 11, 2026, 04:46 UTC

1 10949U 78055E   26254.19901168 -.00000430  00000-0  25780-1 0  9993
2 10949  63.9413 224.2853 6936533 275.8637  15.3456  1.97101024241860

Śledź SL-6 R/B(2) w czasie rzeczywistym z AllMySat

Download on the App Store